{"data":{"norad_id":67661,"intl_designator":"2026-022P","name":"STARLINK-36674","alt_names":[],"object_type":"PAYLOAD","status":"ACTIVE","operator":null,"country":"US","launch_date":"2026-02-02","launch_site_code":"AFWTR","launch_vehicle":null,"mission":null,"orbit_class":"UNKNOWN","rcs_meters":null,"size_class":null,"mass_kg":null,"dimensions":null,"purposes":["comms"],"wikipedia_slug":null,"has_3d_model":false,"image_url":null,"decayed_at":null,"tle_current":{"epoch":"2026-05-25T02:09:35.572320Z","epoch_age_seconds":63477,"freshness":"FRESH","line1":"1 67661U 26022P   26145.08999505  .00011755  00000+0  36577-3 0  9990","line2":"2 67661  97.2824 178.3842 0001383 102.9477 257.1920 15.33453002 17288","mean_motion":15.33453002,"eccentricity":0.0001383,"inclination_deg":97.2824,"raan_deg":178.3842,"arg_perigee_deg":102.9477,"mean_anomaly_deg":257.192,"bstar":0.00036577,"rev_number":1728,"period_min":93.905714627177,"perigee_km":464.5728885841,"apogee_km":466.465843935,"semimajor_km":6843.6563662595,"source":"CELESTRAK","updated_at":"2026-05-25T13:38:21.659505Z"}}}